Time,TemperatureF,DewpointF,PressureIn,WindDirection,WindDirectionDegrees,WindSpeedMPH,WindSpeedGustMPH,Humidity,HourlyPrecipIn,Conditions,Clouds,dailyrainin,SoftwareType,DateUTC
2013-01-26 00:02:00,4.4,-1.8,30.37,NNE,23,3.0,8.0,75,0.00,,,0.00,Wunderground v.1.15,2013-01-26 06:02:00,
2013-01-26 00:07:00,4.4,-1.8,30.37,NNE,23,4.0,8.0,75,0.00,,,0.00,Wunderground v.1.15,2013-01-26 06:07:00,
2013-01-26 00:12:00,4.3,-1.9,30.36,North,9,4.0,5.0,75,0.00,,,0.00,Wunderground v.1.15,2013-01-26 06:12:00,
2013-01-26 00:17:00,4.3,-1.6,30.36,NNE,16,4.0,5.0,76,0.00,,,0.00,Wunderground v.1.15,2013-01-26 06:17:00,
2013-01-26 00:22:00,4.2,-1.7,30.36,NNE,16,0.0,3.0,76,0.00,,,0.00,Wunderground v.1.15,2013-01-26 06:22:00,
2013-01-26 00:27:00,4.2,-1.7,30.36,NNE,16,0.0,3.0,76,0.00,,,0.00,Wunderground v.1.15,2013-01-26 06:27:00,
2013-01-26 00:33:00,4.1,-1.8,30.36,NNE,30,4.0,4.0,76,0.00,,,0.00,Wunderground v.1.15,2013-01-26 06:33:00,
2013-01-26 00:38:00,4.0,-1.9,30.36,NNE,28,6.0,6.0,76,0.00,,,0.00,Wunderground v.1.15,2013-01-26 06:38:00,
2013-01-26 00:43:00,4.0,-1.9,30.36,NNE,27,4.0,6.0,76,0.00,,,0.00,Wunderground v.1.15,2013-01-26 06:43:00,
2013-01-26 00:49:00,4.0,-1.9,30.36,NNE,24,5.0,7.0,76,0.00,,,0.00,Wunderground v.1.15,2013-01-26 06:49:00,
2013-01-26 00:54:00,4.0,-1.9,30.36,NNE,32,3.0,5.0,76,0.00,,,0.00,Wunderground v.1.15,2013-01-26 06:54:00,
2013-01-26 00:59:00,4.0,-1.9,30.36,NNE,28,4.0,5.0,76,0.00,,,0.00,Wunderground v.1.15,2013-01-26 06:59:00,
2013-01-26 01:04:00,4.0,-1.9,30.37,NNE,28,4.0,4.0,76,0.00,,,0.00,Wunderground v.1.15,2013-01-26 07:04:00,
2013-01-26 01:09:00,3.9,-2.0,30.37,NNE,28,1.0,4.0,76,0.00,,,0.00,Wunderground v.1.15,2013-01-26 07:09:00,
2013-01-26 01:14:00,3.8,-2.1,30.37,NNE,28,0.0,2.0,76,0.00,,,0.00,Wunderground v.1.15,2013-01-26 07:14:00,
2013-01-26 01:19:00,3.7,-1.9,30.37,NNE,28,0.0,2.0,77,0.00,,,0.00,Wunderground v.1.15,2013-01-26 07:19:00,
2013-01-26 01:25:00,3.6,-2.0,30.37,NNE,28,1.0,1.0,77,0.00,,,0.00,Wunderground v.1.15,2013-01-26 07:25:00,
2013-01-26 01:30:00,3.6,-2.0,30.37,NNE,28,2.0,2.0,77,0.00,,,0.00,Wunderground v.1.15,2013-01-26 07:30:00,
2013-01-26 01:35:00,3.5,-1.8,30.37,NNE,28,2.0,3.0,78,0.00,,,0.00,Wunderground v.1.15,2013-01-26 07:35:00,
2013-01-26 01:40:00,3.5,-1.8,30.37,NNE,32,2.0,2.0,78,0.00,,,0.00,Wunderground v.1.15,2013-01-26 07:40:00,
2013-01-26 01:45:00,3.4,-1.9,30.38,NNE,32,2.0,3.0,78,0.00,,,0.00,Wunderground v.1.15,2013-01-26 07:45:00,
2013-01-26 01:50:00,3.4,-1.9,30.38,NNE,32,0.0,2.0,78,0.00,,,0.00,Wunderground v.1.15,2013-01-26 07:50:00,
2013-01-26 01:55:00,3.3,-2.0,30.38,NNE,32,0.0,2.0,78,0.00,,,0.00,Wunderground v.1.15,2013-01-26 07:55:00,
2013-01-26 02:00:00,3.2,-1.8,30.38,NNE,32,0.0,0.0,79,0.00,,,0.00,Wunderground v.1.15,2013-01-26 08:00:00,
2013-01-26 02:05:00,3.2,-1.8,30.38,NNE,32,0.0,2.0,79,0.00,,,0.00,Wunderground v.1.15,2013-01-26 08:05:00,
2013-01-26 02:10:00,3.0,-2.0,30.38,NNE,32,0.0,0.0,79,0.00,,,0.00,Wunderground v.1.15,2013-01-26 08:10:00,
2013-01-26 02:15:00,2.9,-2.4,30.38,NNE,32,0.0,2.0,78,0.00,,,0.00,Wunderground v.1.15,2013-01-26 08:15:00,
2013-01-26 02:20:00,2.8,-2.2,30.39,NNE,32,0.0,0.0,79,0.00,,,0.00,Wunderground v.1.15,2013-01-26 08:20:00,
2013-01-26 02:25:00,2.7,-2.3,30.39,NNE,32,0.0,0.0,79,0.00,,,0.00,Wunderground v.1.15,2013-01-26 08:25:00,
2013-01-26 02:30:00,2.7,-2.3,30.39,NNE,32,0.0,0.0,79,0.00,,,0.00,Wunderground v.1.15,2013-01-26 08:30:00,
2013-01-26 02:35:00,2.7,-2.3,30.39,NNE,32,0.0,1.0,79,0.00,,,0.00,Wunderground v.1.15,2013-01-26 08:35:00,
2013-01-26 02:40:00,2.6,-2.4,30.39,NNE,32,2.0,3.0,79,0.00,,,0.00,Wunderground v.1.15,2013-01-26 08:40:00,
2013-01-26 02:45:00,2.6,-2.4,30.39,NNE,32,0.0,3.0,79,0.00,,,0.00,Wunderground v.1.15,2013-01-26 08:45:00,
2013-01-26 02:50:00,2.6,-2.4,30.39,NNE,32,1.0,3.0,79,0.00,,,0.00,Wunderground v.1.15,2013-01-26 08:50:00,
2013-01-26 02:55:00,2.6,-2.4,30.39,NE,35,2.0,5.0,79,0.00,,,0.00,Wunderground v.1.15,2013-01-26 08:55:00,
2013-01-26 03:00:00,2.6,-2.4,30.39,NE,43,0.0,3.0,79,0.00,,,0.00,Wunderground v.1.15,2013-01-26 09:00:00,
2013-01-26 03:05:00,2.6,-2.4,30.38,NE,46,3.0,5.0,79,0.00,,,0.00,Wunderground v.1.15,2013-01-26 09:05:00,
2013-01-26 03:10:00,2.6,-2.4,30.38,NE,44,3.0,5.0,79,0.00,,,0.00,Wunderground v.1.15,2013-01-26 09:10:00,
2013-01-26 03:15:00,2.5,-2.5,30.38,NE,44,2.0,5.0,79,0.00,,,0.00,Wunderground v.1.15,2013-01-26 09:15:00,
2013-01-26 03:20:00,2.5,-2.3,30.38,NE,43,1.0,3.0,80,0.00,,,0.00,Wunderground v.1.15,2013-01-26 09:20:00,
2013-01-26 03:25:00,2.5,-2.3,30.38,NE,50,3.0,5.0,80,0.00,,,0.00,Wunderground v.1.15,2013-01-26 09:25:00,
2013-01-26 03:30:00,2.5,-2.3,30.38,ENE,71,5.0,5.0,80,0.00,,,0.00,Wunderground v.1.15,2013-01-26 09:30:00,
2013-01-26 03:35:00,2.4,-2.4,30.38,ENE,65,0.0,7.0,80,0.00,,,0.00,Wunderground v.1.15,2013-01-26 09:35:00,
2013-01-26 03:40:00,2.4,-2.4,30.38,East,80,0.0,5.0,80,0.00,,,0.00,Wunderground v.1.15,2013-01-26 09:40:00,
2013-01-26 03:45:00,2.3,-2.5,30.37,ENE,70,1.0,5.0,80,0.00,,,0.00,Wunderground v.1.15,2013-01-26 09:45:00,
2013-01-26 03:50:00,2.2,-2.6,30.37,ENE,75,2.0,4.0,80,0.00,,,0.00,Wunderground v.1.15,2013-01-26 09:50:00,
2013-01-26 03:55:00,2.1,-2.7,30.37,East,81,0.0,6.0,80,0.00,,,0.00,Wunderground v.1.15,2013-01-26 09:55:00,
2013-01-26 04:00:00,2.0,-2.8,30.37,East,81,0.0,2.0,80,0.00,,,0.00,Wunderground v.1.15,2013-01-26 10:00:00,
2013-01-26 04:05:00,1.9,-2.8,30.37,East,81,0.0,2.0,80,0.00,,,0.00,Wunderground v.1.15,2013-01-26 10:05:00,
2013-01-26 04:10:00,1.8,-2.7,30.37,East,84,1.0,2.0,81,0.00,,,0.00,Wunderground v.1.15,2013-01-26 10:10:00,
2013-01-26 04:16:00,1.6,-2.9,30.36,ENE,72,0.0,7.0,81,0.00,,,0.00,Wunderground v.1.15,2013-01-26 10:16:00,
2013-01-26 04:21:00,1.6,-2.9,30.36,East,85,2.0,3.0,81,0.00,,,0.00,Wunderground v.1.15,2013-01-26 10:21:00,
2013-01-26 04:26:00,1.5,-3.0,30.36,ENE,69,1.0,6.0,81,0.00,,,0.00,Wunderground v.1.15,2013-01-26 10:26:00,
2013-01-26 04:31:00,1.5,-3.0,30.36,ENE,70,3.0,4.0,81,0.00,,,0.00,Wunderground v.1.15,2013-01-26 10:31:00,
2013-01-26 04:36:00,1.5,-3.0,30.36,East,79,2.0,5.0,81,0.00,,,0.00,Wunderground v.1.15,2013-01-26 10:36:00,
2013-01-26 04:41:00,1.5,-3.0,30.36,East,79,2.0,5.0,81,0.00,,,0.00,Wunderground v.1.15,2013-01-26 10:41:00,
2013-01-26 04:46:00,1.5,-2.7,30.36,East,81,1.0,5.0,82,0.00,,,0.00,Wunderground v.1.15,2013-01-26 10:46:00,
2013-01-26 04:51:00,1.5,-2.7,30.36,East,79,0.0,3.0,82,0.00,,,0.00,Wunderground v.1.15,2013-01-26 10:51:00,
2013-01-26 04:56:00,1.5,-2.7,30.37,East,79,1.0,3.0,82,0.00,,,0.00,Wunderground v.1.15,2013-01-26 10:56:00,
2013-01-26 05:01:00,1.5,-2.7,30.37,East,79,3.0,3.0,82,0.00,,,0.00,Wunderground v.1.15,2013-01-26 11:01:00,
2013-01-26 05:06:00,1.7,-2.5,30.37,East,79,0.0,3.0,82,0.00,,,0.00,Wunderground v.1.15,2013-01-26 11:06:00,
2013-01-26 05:11:00,1.7,-2.5,30.37,East,79,1.0,2.0,82,0.00,,,0.00,Wunderground v.1.15,2013-01-26 11:11:00,
2013-01-26 05:16:00,1.8,-2.4,30.37,East,101,1.0,5.0,82,0.00,,,0.00,Wunderground v.1.15,2013-01-26 11:16:00,
2013-01-26 05:21:00,1.8,-2.4,30.37,East,101,1.0,2.0,82,0.00,,,0.00,Wunderground v.1.15,2013-01-26 11:21:00,
2013-01-26 05:26:00,1.8,-2.4,30.37,East,101,0.0,5.0,82,0.00,,,0.00,Wunderground v.1.15,2013-01-26 11:26:00,
2013-01-26 05:31:00,1.8,-2.4,30.37,East,101,1.0,3.0,82,0.00,,,0.00,Wunderground v.1.15,2013-01-26 11:31:00,
2013-01-26 05:36:00,1.8,-2.4,30.38,East,101,2.0,5.0,82,0.00,,,0.00,Wunderground v.1.15,2013-01-26 11:36:00,
2013-01-26 05:41:00,1.8,-2.4,30.37,East,101,2.0,5.0,82,0.00,,,0.00,Wunderground v.1.15,2013-01-26 11:41:00,
2013-01-26 05:46:00,1.7,-2.5,30.37,East,100,2.0,5.0,82,0.00,,,0.00,Wunderground v.1.15,2013-01-26 11:46:00,
2013-01-26 05:51:00,1.7,-2.5,30.37,East,101,2.0,3.0,82,0.00,,,0.00,Wunderground v.1.15,2013-01-26 11:51:00,
2013-01-26 05:56:00,1.6,-2.6,30.37,ESE,109,4.0,6.0,82,0.00,,,0.00,Wunderground v.1.15,2013-01-26 11:56:00,
2013-01-26 06:01:00,1.7,-2.5,30.37,ESE,120,3.0,5.0,82,0.00,,,0.00,Wunderground v.1.15,2013-01-26 12:01:00,
2013-01-26 06:06:00,1.7,-2.5,30.37,ESE,122,3.0,5.0,82,0.00,,,0.00,Wunderground v.1.15,2013-01-26 12:06:00,
2013-01-26 06:11:00,1.7,-2.5,30.37,ESE,122,4.0,4.0,82,0.00,,,0.00,Wunderground v.1.15,2013-01-26 12:11:00,
2013-01-26 06:16:00,1.7,-2.3,30.37,SE,131,3.0,6.0,83,0.00,,,0.00,Wunderground v.1.15,2013-01-26 12:16:00,
2013-01-26 06:21:00,1.8,-2.2,30.37,SE,137,4.0,5.0,83,0.00,,,0.00,Wunderground v.1.15,2013-01-26 12:21:00,
2013-01-26 06:26:00,1.8,-2.4,30.37,SE,130,2.0,6.0,82,0.00,,,0.00,Wunderground v.1.15,2013-01-26 12:26:00,
2013-01-26 06:31:00,1.8,-2.4,30.37,SE,141,5.0,6.0,82,0.00,,,0.00,Wunderground v.1.15,2013-01-26 12:31:00,
2013-01-26 06:36:00,1.9,-2.3,30.37,SE,128,3.0,7.0,82,0.00,,,0.00,Wunderground v.1.15,2013-01-26 12:36:00,
2013-01-26 06:41:00,1.9,-2.3,30.37,SE,129,5.0,8.0,82,0.00,,,0.00,Wunderground v.1.15,2013-01-26 12:41:00,
2013-01-26 06:46:00,1.9,-2.3,30.36,SE,128,4.0,8.0,82,0.00,,,0.00,Wunderground v.1.15,2013-01-26 12:46:00,
2013-01-26 06:51:00,1.9,-2.3,30.36,SE,130,7.0,8.0,82,0.00,,,0.00,Wunderground v.1.15,2013-01-26 12:51:00,
2013-01-26 06:56:00,1.8,-2.4,30.36,ESE,123,3.0,9.0,82,0.00,,,0.00,Wunderground v.1.15,2013-01-26 12:56:00,
2013-01-26 07:02:00,1.8,-2.4,30.36,SE,126,11.0,11.0,82,0.00,,,0.00,Wunderground v.1.15,2013-01-26 13:02:00,
2013-01-26 07:07:00,1.9,-2.3,30.35,SE,140,9.0,11.0,82,0.00,,,0.00,Wunderground v.1.15,2013-01-26 13:07:00,
2013-01-26 07:12:00,1.9,-2.3,30.35,SE,136,8.0,9.0,82,0.00,,,0.00,Wunderground v.1.15,2013-01-26 13:12:00,
2013-01-26 07:17:00,1.9,-2.3,30.36,SSE,147,9.0,11.0,82,0.00,,,0.00,Wunderground v.1.15,2013-01-26 13:17:00,
2013-01-26 07:22:00,2.0,-2.2,30.36,SSE,150,5.0,10.0,82,0.00,,,0.00,Wunderground v.1.15,2013-01-26 13:22:00,
2013-01-26 07:27:00,2.1,-2.1,30.36,SE,130,7.0,10.0,82,0.00,,,0.00,Wunderground v.1.15,2013-01-26 13:27:00,
2013-01-26 07:32:00,2.1,-2.1,30.36,SE,134,6.0,8.0,82,0.00,,,0.00,Wunderground v.1.15,2013-01-26 13:32:00,
2013-01-26 07:37:00,2.1,-2.1,30.36,SE,146,10.0,10.0,82,0.00,,,0.00,Wunderground v.1.15,2013-01-26 13:37:00,
2013-01-26 07:42:00,2.1,-2.1,30.36,SE,143,8.0,11.0,82,0.00,,,0.00,Wunderground v.1.15,2013-01-26 13:42:00,
2013-01-26 07:47:00,2.2,-2.0,30.36,SSE,150,5.0,11.0,82,0.00,,,0.00,Wunderground v.1.15,2013-01-26 13:47:00,
2013-01-26 07:52:00,2.3,-1.9,30.36,SE,138,7.0,10.0,82,0.00,,,0.00,Wunderground v.1.15,2013-01-26 13:52:00,
2013-01-26 07:57:00,2.5,-1.7,30.36,SE,141,10.0,11.0,82,0.00,,,0.00,Wunderground v.1.15,2013-01-26 13:57:00,
2013-01-26 08:02:00,2.8,-1.4,30.36,SSE,149,7.0,8.0,82,0.00,,,0.00,Wunderground v.1.15,2013-01-26 14:02:00,
2013-01-26 08:07:00,3.0,-1.5,30.36,SE,142,5.0,8.0,81,0.00,,,0.00,Wunderground v.1.15,2013-01-26 14:07:00,
2013-01-26 08:12:00,3.2,-1.1,30.37,SE,140,6.0,10.0,82,0.00,,,0.00,Wunderground v.1.15,2013-01-26 14:12:00,
2013-01-26 08:17:00,3.3,-1.2,30.37,SE,126,8.0,10.0,81,0.00,,,0.00,Wunderground v.1.15,2013-01-26 14:17:00,
2013-01-26 08:22:00,3.5,-1.0,30.36,SE,128,10.0,10.0,81,0.00,,,0.00,Wunderground v.1.15,2013-01-26 14:22:00,
2013-01-26 08:27:00,3.7,-0.8,30.36,SE,134,6.0,12.0,81,0.00,,,0.00,Wunderground v.1.15,2013-01-26 14:27:00,
2013-01-26 08:32:00,4.0,-0.5,30.36,SE,146,10.0,12.0,81,0.00,,,0.00,Wunderground v.1.15,2013-01-26 14:32:00,
2013-01-26 08:37:00,4.2,-0.3,30.36,SE,136,7.0,12.0,81,0.00,,,0.00,Wunderground v.1.15,2013-01-26 14:37:00,
2013-01-26 08:42:00,4.5,0.0,30.35,SE,137,16.0,18.0,81,0.00,,,0.00,Wunderground v.1.15,2013-01-26 14:42:00,
2013-01-26 08:47:00,4.7,-0.1,30.34,SSE,150,11.0,18.0,80,0.00,,,0.00,Wunderground v.1.15,2013-01-26 14:47:00,
2013-01-26 08:52:00,5.1,0.3,30.35,SE,135,13.0,15.0,80,0.00,,,0.00,Wunderground v.1.15,2013-01-26 14:52:00,
2013-01-26 08:57:00,5.5,0.7,30.35,SSE,153,9.0,16.0,80,0.00,,,0.00,Wunderground v.1.15,2013-01-26 14:57:00,
2013-01-26 09:02:00,5.8,1.0,30.35,SE,142,11.0,17.0,80,0.00,,,0.00,Wunderground v.1.15,2013-01-26 15:02:00,
2013-01-26 09:07:00,6.0,0.9,30.34,SSE,158,13.0,18.0,79,0.00,,,0.00,Wunderground v.1.15,2013-01-26 15:07:00,
2013-01-26 09:12:00,6.4,1.3,30.35,SSE,153,8.0,13.0,79,0.00,,,0.00,Wunderground v.1.15,2013-01-26 15:12:00,
2013-01-26 09:17:00,6.6,1.5,30.34,SE,144,12.0,16.0,79,0.00,,,0.00,Wunderground v.1.15,2013-01-26 15:17:00,
2013-01-26 09:22:00,6.9,1.8,30.35,SE,138,14.0,14.0,79,0.00,,,0.00,Wunderground v.1.15,2013-01-26 15:22:00,
2013-01-26 09:27:00,7.2,1.8,30.35,SE,146,7.0,19.0,78,0.00,,,0.00,Wunderground v.1.15,2013-01-26 15:27:00,
2013-01-26 09:32:00,7.5,2.1,30.34,SSE,155,12.0,17.0,78,0.00,,,0.00,Wunderground v.1.15,2013-01-26 15:32:00,
2013-01-26 09:37:00,7.7,2.3,30.35,SE,124,11.0,17.0,78,0.00,,,0.00,Wunderground v.1.15,2013-01-26 15:37:00,
2013-01-26 09:42:00,7.9,2.5,30.35,SSE,159,10.0,15.0,78,0.00,,,0.00,Wunderground v.1.15,2013-01-26 15:42:00,
2013-01-26 09:47:00,8.3,2.9,30.35,SE,134,13.0,15.0,78,0.00,,,0.00,Wunderground v.1.15,2013-01-26 15:47:00,
2013-01-26 09:52:00,8.4,2.7,30.35,SSE,155,10.0,15.0,77,0.00,,,0.00,Wunderground v.1.15,2013-01-26 15:52:00,
2013-01-26 09:58:00,8.6,2.9,30.35,SE,146,10.0,16.0,77,0.00,,,0.00,Wunderground v.1.15,2013-01-26 15:58:00,
2013-01-26 10:02:00,9.0,3.3,30.35,SSE,155,8.0,13.0,77,0.00,,,0.00,Wunderground v.1.15,2013-01-26 16:02:00,
2013-01-26 10:08:00,9.3,3.5,30.35,SE,136,9.0,16.0,77,0.00,,,0.00,Wunderground v.1.15,2013-01-26 16:08:00,
2013-01-26 10:13:00,9.6,3.8,30.35,SE,125,9.0,16.0,77,0.00,,,0.00,Wunderground v.1.15,2013-01-26 16:13:00,
2013-01-26 10:18:00,9.8,3.7,30.35,South,178,6.0,16.0,76,0.00,,,0.00,Wunderground v.1.15,2013-01-26 16:18:00,
2013-01-26 10:23:00,10.3,4.5,30.35,SSE,148,14.0,18.0,77,0.00,,,0.00,Wunderground v.1.15,2013-01-26 16:23:00,
2013-01-26 10:29:00,10.6,4.2,30.34,SSE,157,11.0,18.0,75,0.00,,,0.00,Wunderground v.1.15,2013-01-26 16:29:00,
2013-01-26 10:34:00,10.8,4.1,30.34,SE,142,8.0,19.0,74,0.00,,,0.00,Wunderground v.1.15,2013-01-26 16:34:00,
2013-01-26 10:39:00,11.0,4.3,30.34,SE,142,11.0,19.0,74,0.00,,,0.00,Wunderground v.1.15,2013-01-26 16:39:00,
2013-01-26 10:44:00,11.4,4.7,30.34,SE,138,19.0,19.0,74,0.00,,,0.00,Wunderground v.1.15,2013-01-26 16:44:00,
2013-01-26 10:49:00,11.4,4.4,30.34,SE,128,15.0,20.0,73,0.00,,,0.00,Wunderground v.1.15,2013-01-26 16:49:00,
2013-01-26 10:54:00,11.7,4.7,30.34,SSE,157,17.0,20.0,73,0.00,,,0.00,Wunderground v.1.15,2013-01-26 16:54:00,
2013-01-26 10:59:00,12.2,4.9,30.34,SE,130,16.0,20.0,72,0.00,,,0.00,Wunderground v.1.15,2013-01-26 16:59:00,
2013-01-26 11:04:00,12.8,5.5,30.34,SE,136,15.0,17.0,72,0.00,,,0.00,Wunderground v.1.15,2013-01-26 17:04:00,
2013-01-26 11:09:00,13.4,5.7,30.34,SSE,153,16.0,19.0,71,0.00,,,0.00,Wunderground v.1.15,2013-01-26 17:09:00,
2013-01-26 11:14:00,13.3,5.3,30.33,SSE,149,16.0,21.0,70,0.00,,,0.00,Wunderground v.1.15,2013-01-26 17:14:00,
2013-01-26 11:19:00,13.6,5.9,30.33,ESE,119,12.0,21.0,71,0.00,,,0.00,Wunderground v.1.15,2013-01-26 17:19:00,
2013-01-26 11:24:00,14.1,6.1,30.33,SE,142,13.0,20.0,70,0.00,,,0.00,Wunderground v.1.15,2013-01-26 17:24:00,
2013-01-26 11:29:00,14.8,6.8,30.33,SSE,162,5.0,20.0,70,0.00,,,0.00,Wunderground v.1.15,2013-01-26 17:29:00,
2013-01-26 11:34:00,14.9,6.6,30.33,ESE,102,11.0,17.0,69,0.00,,,0.00,Wunderground v.1.15,2013-01-26 17:34:00,
2013-01-26 11:39:00,15.1,6.8,30.32,SSE,151,9.0,23.0,69,0.00,,,0.00,Wunderground v.1.15,2013-01-26 17:39:00,
2013-01-26 11:44:00,15.3,6.9,30.33,SSE,163,11.0,15.0,69,0.00,,,0.00,Wunderground v.1.15,2013-01-26 17:44:00,
2013-01-26 11:49:00,15.7,7.3,30.32,SSE,151,14.0,16.0,69,0.00,,,0.00,Wunderground v.1.15,2013-01-26 17:49:00,
2013-01-26 11:54:00,16.1,7.4,30.31,SSE,163,8.0,17.0,68,0.00,,,0.00,Wunderground v.1.15,2013-01-26 17:54:00,
2013-01-26 11:59:00,16.2,7.5,30.31,SE,142,16.0,17.0,68,0.00,,,0.00,Wunderground v.1.15,2013-01-26 17:59:00,
2013-01-26 12:04:00,16.7,8.3,30.31,SSE,157,9.0,19.0,69,0.00,,,0.00,Wunderground v.1.15,2013-01-26 18:04:00,
2013-01-26 12:09:00,17.0,7.9,30.31,ESE,122,10.0,19.0,67,0.00,,,0.00,Wunderground v.1.15,2013-01-26 18:09:00,
2013-01-26 12:14:00,17.7,8.6,30.31,SE,132,10.0,15.0,67,0.00,,,0.00,Wunderground v.1.15,2013-01-26 18:14:00,
2013-01-26 12:19:00,18.0,8.9,30.30,SE,142,17.0,21.0,67,0.00,,,0.00,Wunderground v.1.15,2013-01-26 18:19:00,
2013-01-26 12:24:00,18.4,8.9,30.30,South,171,11.0,17.0,66,0.00,,,0.00,Wunderground v.1.15,2013-01-26 18:24:00,
2013-01-26 12:29:00,18.3,8.5,30.30,SSE,156,15.0,17.0,65,0.00,,,0.00,Wunderground v.1.15,2013-01-26 18:29:00,
2013-01-26 12:34:00,18.6,9.1,30.29,SSE,150,10.0,19.0,66,0.00,,,0.00,Wunderground v.1.15,2013-01-26 18:34:00,
2013-01-26 12:39:00,18.9,9.4,30.29,SSE,148,12.0,19.0,66,0.00,,,0.00,Wunderground v.1.15,2013-01-26 18:39:00,
2013-01-26 12:44:00,19.4,11.8,30.28,SSE,156,13.0,17.0,72,0.00,,,0.00,Wunderground v.1.15,2013-01-26 18:44:00,
2013-01-26 12:50:00,19.9,10.0,30.28,SSE,156,12.0,17.0,65,0.00,,,0.00,Wunderground v.1.15,2013-01-26 18:50:00,
2013-01-26 12:54:00,20.5,10.6,30.27,SE,140,14.0,19.0,65,0.00,,,0.00,Wunderground v.1.15,2013-01-26 18:54:00,
2013-01-26 13:00:00,20.8,10.5,30.27,SSE,157,10.0,20.0,64,0.00,,,0.00,Wunderground v.1.15,2013-01-26 19:00:00,
2013-01-26 13:05:00,21.3,11.0,30.26,SE,128,13.0,20.0,64,0.00,,,0.00,Wunderground v.1.15,2013-01-26 19:05:00,
2013-01-26 13:10:00,21.6,10.9,30.25,SE,140,12.0,23.0,63,0.00,,,0.00,Wunderground v.1.15,2013-01-26 19:10:00,
2013-01-26 13:15:00,22.2,11.5,30.25,SE,142,10.0,18.0,63,0.00,,,0.00,Wunderground v.1.15,2013-01-26 19:15:00,
2013-01-26 13:20:00,22.6,11.9,30.24,South,179,9.0,12.0,63,0.00,,,0.00,Wunderground v.1.15,2013-01-26 19:20:00,
2013-01-26 13:25:00,22.9,11.8,30.24,SSE,153,10.0,22.0,62,0.00,,,0.00,Wunderground v.1.15,2013-01-26 19:25:00,
2013-01-26 13:30:00,23.1,11.6,30.24,SSE,157,13.0,13.0,61,0.00,,,0.00,Wunderground v.1.15,2013-01-26 19:30:00,
2013-01-26 13:35:00,23.5,12.0,30.24,SSE,153,15.0,17.0,61,0.00,,,0.00,Wunderground v.1.15,2013-01-26 19:35:00,
2013-01-26 13:40:00,23.6,12.1,30.23,SSE,167,11.0,12.0,61,0.00,,,0.00,Wunderground v.1.15,2013-01-26 19:40:00,
2013-01-26 13:45:00,24.0,12.5,30.23,SSE,154,14.0,20.0,61,0.00,,,0.00,Wunderground v.1.15,2013-01-26 19:45:00,
2013-01-26 13:50:00,24.2,12.7,30.23,ESE,115,11.0,15.0,61,0.00,,,0.00,Wunderground v.1.15,2013-01-26 19:50:00,
2013-01-26 13:55:00,24.7,13.1,30.23,SSE,160,12.0,20.0,61,0.00,,,0.00,Wunderground v.1.15,2013-01-26 19:55:00,
2013-01-26 14:00:00,25.1,13.5,30.23,SSE,155,9.0,12.0,61,0.00,,,0.00,Wunderground v.1.15,2013-01-26 20:00:00,
2013-01-26 14:05:00,25.3,13.3,30.22,SSE,158,13.0,18.0,60,0.00,,,0.00,Wunderground v.1.15,2013-01-26 20:05:00,
2013-01-26 14:10:00,25.6,13.6,30.22,SSE,165,10.0,16.0,60,0.00,,,0.00,Wunderground v.1.15,2013-01-26 20:10:00,
2013-01-26 14:15:00,26.0,14.4,30.22,SSE,161,11.0,19.0,61,0.00,,,0.00,Wunderground v.1.15,2013-01-26 20:15:00,
2013-01-26 14:20:00,26.0,14.0,30.21,SSE,165,11.0,16.0,60,0.00,,,0.00,Wunderground v.1.15,2013-01-26 20:20:00,
2013-01-26 14:25:00,26.3,14.7,30.21,SSE,153,15.0,16.0,61,0.00,,,0.00,Wunderground v.1.15,2013-01-26 20:25:00,
2013-01-26 14:30:00,26.6,14.9,30.21,South,178,10.0,11.0,61,0.00,,,0.00,Wunderground v.1.15,2013-01-26 20:30:00,
2013-01-26 14:36:00,27.3,15.6,30.21,SSW,193,11.0,18.0,61,0.00,,,0.00,Wunderground v.1.15,2013-01-26 20:36:00,
2013-01-26 14:41:00,27.6,15.5,30.20,SSE,158,15.0,22.0,60,0.00,,,0.00,Wunderground v.1.15,2013-01-26 20:41:00,
2013-01-26 14:46:00,27.6,15.5,30.20,SSE,148,7.0,22.0,60,0.00,,,0.00,Wunderground v.1.15,2013-01-26 20:46:00,
2013-01-26 14:51:00,27.6,15.5,30.20,SSE,166,11.0,20.0,60,0.00,,,0.00,Wunderground v.1.15,2013-01-26 20:51:00,
2013-01-26 14:56:00,27.5,15.4,30.20,SSW,211,10.0,20.0,60,0.00,,,0.00,Wunderground v.1.15,2013-01-26 20:56:00,
2013-01-26 15:01:00,27.6,15.5,30.20,South,186,10.0,18.0,60,0.00,,,0.00,Wunderground v.1.15,2013-01-26 21:01:00,
2013-01-26 15:06:00,27.5,15.4,30.19,SSE,168,10.0,21.0,60,0.00,,,0.00,Wunderground v.1.15,2013-01-26 21:06:00,
2013-01-26 15:11:00,27.6,15.5,30.19,SSE,148,9.0,19.0,60,0.00,,,0.00,Wunderground v.1.15,2013-01-26 21:11:00,
2013-01-26 15:16:00,27.8,15.7,30.19,SSE,162,9.0,22.0,60,0.00,,,0.00,Wunderground v.1.15,2013-01-26 21:16:00,
2013-01-26 15:21:00,27.8,15.7,30.19,South,172,15.0,17.0,60,0.00,,,0.00,Wunderground v.1.15,2013-01-26 21:21:00,
2013-01-26 15:26:00,27.9,16.2,30.19,South,180,9.0,19.0,61,0.00,,,0.00,Wunderground v.1.15,2013-01-26 21:26:00,
2013-01-26 15:31:00,27.9,16.2,30.18,SSE,163,19.0,19.0,61,0.00,,,0.00,Wunderground v.1.15,2013-01-26 21:31:00,
2013-01-26 15:36:00,28.0,16.3,30.18,SSE,148,12.0,19.0,61,0.00,,,0.00,Wunderground v.1.15,2013-01-26 21:36:00,
2013-01-26 15:41:00,28.1,16.4,30.18,South,171,15.0,16.0,61,0.00,,,0.00,Wunderground v.1.15,2013-01-26 21:41:00,
2013-01-26 15:46:00,28.3,16.6,30.18,SSW,194,11.0,22.0,61,0.00,,,0.00,Wunderground v.1.15,2013-01-26 21:46:00,
2013-01-26 15:51:00,28.3,16.6,30.18,South,180,10.0,19.0,61,0.00,,,0.00,Wunderground v.1.15,2013-01-26 21:51:00,
2013-01-26 15:56:00,28.3,16.6,30.17,SSE,165,11.0,19.0,61,0.00,,,0.00,Wunderground v.1.15,2013-01-26 21:56:00,
2013-01-26 16:01:00,28.3,16.6,30.17,SSE,163,18.0,18.0,61,0.00,,,0.00,Wunderground v.1.15,2013-01-26 22:01:00,
2013-01-26 16:06:00,28.3,16.9,30.17,SE,143,12.0,20.0,62,0.00,,,0.00,Wunderground v.1.15,2013-01-26 22:06:00,
2013-01-26 16:11:00,28.2,16.8,30.17,SSE,157,14.0,19.0,62,0.00,,,0.00,Wunderground v.1.15,2013-01-26 22:11:00,
2013-01-26 16:16:00,28.2,16.8,30.17,SSE,161,13.0,21.0,62,0.00,,,0.00,Wunderground v.1.15,2013-01-26 22:16:00,
2013-01-26 16:21:00,28.3,16.6,30.17,SE,144,13.0,19.0,61,0.00,,,0.00,Wunderground v.1.15,2013-01-26 22:21:00,
2013-01-26 16:26:00,28.4,17.0,30.17,SSE,150,13.0,19.0,62,0.00,,,0.00,Wunderground v.1.15,2013-01-26 22:26:00,
2013-01-26 16:31:00,28.4,16.7,30.17,South,170,13.0,18.0,61,0.00,,,0.00,Wunderground v.1.15,2013-01-26 22:31:00,
2013-01-26 16:36:00,28.3,16.6,30.17,SE,145,11.0,18.0,61,0.00,,,0.00,Wunderground v.1.15,2013-01-26 22:36:00,
2013-01-26 16:41:00,28.3,16.9,30.17,SSE,158,11.0,19.0,62,0.00,,,0.00,Wunderground v.1.15,2013-01-26 22:41:00,
2013-01-26 16:46:00,28.4,17.0,30.17,ESE,114,16.0,19.0,62,0.00,,,0.00,Wunderground v.1.15,2013-01-26 22:46:00,
2013-01-26 16:51:00,28.4,17.0,30.16,SSE,150,7.0,15.0,62,0.00,,,0.00,Wunderground v.1.15,2013-01-26 22:51:00,
2013-01-26 16:56:00,28.3,16.9,30.16,SSE,159,10.0,17.0,62,0.00,,,0.00,Wunderground v.1.15,2013-01-26 22:56:00,
2013-01-26 17:01:00,28.4,17.0,30.16,SE,145,15.0,16.0,62,0.00,,,0.00,Wunderground v.1.15,2013-01-26 23:01:00,
2013-01-26 17:06:00,28.4,17.4,30.16,SE,140,19.0,19.0,63,0.00,,,0.00,Wunderground v.1.15,2013-01-26 23:06:00,
2013-01-26 17:11:00,28.3,16.9,30.16,South,178,10.0,14.0,62,0.00,,,0.00,Wunderground v.1.15,2013-01-26 23:11:00,
2013-01-26 17:16:00,28.3,16.9,30.16,South,169,9.0,16.0,62,0.00,,,0.00,Wunderground v.1.15,2013-01-26 23:16:00,
2013-01-26 17:21:00,28.2,16.8,30.17,SE,144,9.0,14.0,62,0.00,,,0.00,Wunderground v.1.15,2013-01-26 23:21:00,
2013-01-26 17:26:00,28.2,17.2,30.17,SSE,161,10.0,16.0,63,0.00,,,0.00,Wunderground v.1.15,2013-01-26 23:26:00,
2013-01-26 17:31:00,28.1,17.1,30.17,SE,138,9.0,12.0,63,0.00,,,0.00,Wunderground v.1.15,2013-01-26 23:31:00,
2013-01-26 17:36:00,28.1,17.1,30.17,SSE,154,11.0,12.0,63,0.00,,,0.00,Wunderground v.1.15,2013-01-26 23:36:00,
2013-01-26 17:42:00,28.0,17.4,30.16,SE,144,11.0,14.0,64,0.00,,,0.00,Wunderground v.1.15,2013-01-26 23:42:00,
2013-01-26 17:47:00,27.9,16.9,30.16,SSE,148,10.0,14.0,63,0.00,,,0.00,Wunderground v.1.15,2013-01-26 23:47:00,
2013-01-26 17:52:00,27.9,16.9,30.16,SE,142,11.0,17.0,63,0.00,,,0.00,Wunderground v.1.15,2013-01-26 23:52:00,
2013-01-26 17:57:00,27.9,17.3,30.16,SSE,148,12.0,17.0,64,0.00,,,0.00,Wunderground v.1.15,2013-01-26 23:57:00,
2013-01-26 18:02:00,27.8,17.2,30.16,SE,146,13.0,14.0,64,0.00,,,0.00,Wunderground v.1.15,2013-01-27 00:02:00,
2013-01-26 18:07:00,27.8,17.2,30.16,South,178,11.0,18.0,64,0.00,,,0.00,Wunderground v.1.15,2013-01-27 00:07:00,
2013-01-26 18:12:00,27.9,17.3,30.16,SSE,155,14.0,15.0,64,0.00,,,0.00,Wunderground v.1.15,2013-01-27 00:12:00,
2013-01-26 18:17:00,28.0,17.4,30.16,SSE,154,7.0,16.0,64,0.00,,,0.00,Wunderground v.1.15,2013-01-27 00:17:00,
2013-01-26 18:22:00,28.1,17.5,30.16,SE,127,12.0,16.0,64,0.00,,,0.00,Wunderground v.1.15,2013-01-27 00:22:00,
2013-01-26 18:27:00,28.1,17.5,30.16,SSE,157,13.0,16.0,64,0.00,,,0.00,Wunderground v.1.15,2013-01-27 00:27:00,
2013-01-26 18:32:00,28.1,17.5,30.16,SE,125,11.0,12.0,64,0.00,,,0.00,Wunderground v.1.15,2013-01-27 00:32:00,
2013-01-26 18:37:00,28.1,17.5,30.16,SSE,150,10.0,15.0,64,0.00,,,0.00,Wunderground v.1.15,2013-01-27 00:37:00,
2013-01-26 18:42:00,28.1,17.5,30.17,SE,135,11.0,12.0,64,0.00,,,0.00,Wunderground v.1.15,2013-01-27 00:42:00,
2013-01-26 18:47:00,28.1,17.5,30.17,SSE,155,9.0,15.0,64,0.00,,,0.00,Wunderground v.1.15,2013-01-27 00:47:00,
2013-01-26 18:52:00,28.2,17.6,30.16,SE,134,8.0,14.0,64,0.00,,,0.00,Wunderground v.1.15,2013-01-27 00:52:00,
2013-01-26 18:57:00,28.3,17.7,30.16,SE,127,7.0,14.0,64,0.00,,,0.00,Wunderground v.1.15,2013-01-27 00:57:00,
2013-01-26 19:02:00,28.2,17.6,30.16,SSE,159,12.0,16.0,64,0.00,,,0.00,Wunderground v.1.15,2013-01-27 01:02:00,
2013-01-26 19:07:00,28.2,17.6,30.16,SSE,148,11.0,16.0,64,0.00,,,0.00,Wunderground v.1.15,2013-01-27 01:07:00,
2013-01-26 19:12:00,28.2,17.9,30.16,SE,140,7.0,14.0,65,0.00,,,0.00,Wunderground v.1.15,2013-01-27 01:12:00,
2013-01-26 19:17:00,28.2,17.9,30.16,SSE,165,7.0,14.0,65,0.00,,,0.00,Wunderground v.1.15,2013-01-27 01:17:00,
2013-01-26 19:22:00,28.3,17.7,30.16,SE,146,12.0,16.0,64,0.00,,,0.00,Wunderground v.1.15,2013-01-27 01:22:00,
2013-01-26 19:28:00,28.3,17.7,30.16,South,184,4.0,16.0,64,0.00,,,0.00,Wunderground v.1.15,2013-01-27 01:28:00,
2013-01-26 19:33:00,28.2,17.6,30.16,SSE,163,7.0,12.0,64,0.00,,,0.00,Wunderground v.1.15,2013-01-27 01:33:00,
2013-01-26 19:38:00,28.3,17.7,30.16,SSE,155,7.0,15.0,64,0.00,,,0.00,Wunderground v.1.15,2013-01-27 01:38:00,
2013-01-26 19:43:00,28.3,17.7,30.16,South,185,9.0,14.0,64,0.00,,,0.00,Wunderground v.1.15,2013-01-27 01:43:00,
2013-01-26 19:48:00,28.4,17.8,30.16,SSE,162,11.0,16.0,64,0.00,,,0.00,Wunderground v.1.15,2013-01-27 01:48:00,
2013-01-26 19:53:00,28.5,17.5,30.16,SSE,166,11.0,20.0,63,0.00,,,0.00,Wunderground v.1.15,2013-01-27 01:53:00,
2013-01-26 19:58:00,28.4,17.4,30.16,SSE,166,7.0,20.0,63,0.00,,,0.00,Wunderground v.1.15,2013-01-27 01:58:00,
2013-01-26 20:03:00,28.3,17.7,30.17,SE,144,11.0,16.0,64,0.00,,,0.00,Wunderground v.1.15,2013-01-27 02:03:00,
2013-01-26 20:08:00,28.1,17.5,30.17,SSE,161,7.0,16.0,64,0.00,,,0.00,Wunderground v.1.15,2013-01-27 02:08:00,
2013-01-26 20:13:00,28.0,17.4,30.17,SE,132,7.0,12.0,64,0.00,,,0.00,Wunderground v.1.15,2013-01-27 02:13:00,
2013-01-26 20:18:00,27.8,17.2,30.17,SSE,161,6.0,12.0,64,0.00,,,0.00,Wunderground v.1.15,2013-01-27 02:18:00,
2013-01-26 20:23:00,27.7,17.5,30.17,SSE,156,7.0,11.0,65,0.00,,,0.00,Wunderground v.1.15,2013-01-27 02:23:00,
2013-01-26 20:28:00,27.5,17.3,30.17,SE,145,5.0,13.0,65,0.00,,,0.00,Wunderground v.1.15,2013-01-27 02:28:00,
2013-01-26 20:33:00,27.5,17.3,30.17,SSE,156,10.0,15.0,65,0.00,,,0.00,Wunderground v.1.15,2013-01-27 02:33:00,
2013-01-26 20:38:00,27.4,17.2,30.17,SSE,155,8.0,15.0,65,0.00,,,0.00,Wunderground v.1.15,2013-01-27 02:38:00,
2013-01-26 20:43:00,27.3,17.1,30.17,SE,141,8.0,15.0,65,0.00,,,0.00,Wunderground v.1.15,2013-01-27 02:43:00,
2013-01-26 20:48:00,27.2,17.0,30.17,SE,144,10.0,15.0,65,0.00,,,0.00,Wunderground v.1.15,2013-01-27 02:48:00,
2013-01-26 20:53:00,27.1,16.9,30.17,SSE,147,7.0,14.0,65,0.00,,,0.00,Wunderground v.1.15,2013-01-27 02:53:00,
2013-01-26 20:58:00,27.0,16.8,30.16,SE,138,9.0,14.0,65,0.00,,,0.00,Wunderground v.1.15,2013-01-27 02:58:00,
2013-01-26 21:03:00,26.9,16.7,30.16,SSE,152,11.0,13.0,65,0.00,,,0.00,Wunderground v.1.15,2013-01-27 03:03:00,
2013-01-26 21:08:00,26.8,16.6,30.16,SSE,151,11.0,14.0,65,0.00,,,0.00,Wunderground v.1.15,2013-01-27 03:08:00,
2013-01-26 21:13:00,26.7,16.9,30.16,SSE,167,11.0,13.0,66,0.00,,,0.00,Wunderground v.1.15,2013-01-27 03:13:00,
2013-01-26 21:18:00,26.8,16.6,30.16,SE,146,11.0,15.0,65,0.00,,,0.00,Wunderground v.1.15,2013-01-27 03:18:00,
2013-01-26 21:23:00,26.8,16.6,30.16,SSE,153,11.0,14.0,65,0.00,,,0.00,Wunderground v.1.15,2013-01-27 03:23:00,
2013-01-26 21:28:00,26.8,16.6,30.16,SSE,151,10.0,16.0,65,0.00,,,0.00,Wunderground v.1.15,2013-01-27 03:28:00,
2013-01-26 21:33:00,26.6,16.4,30.16,SE,142,10.0,14.0,65,0.00,,,0.00,Wunderground v.1.15,2013-01-27 03:33:00,
2013-01-26 21:38:00,26.5,16.3,30.16,SSE,149,8.0,15.0,65,0.00,,,0.00,Wunderground v.1.15,2013-01-27 03:38:00,
2013-01-26 21:43:00,26.4,16.2,30.16,SE,142,9.0,16.0,65,0.00,,,0.00,Wunderground v.1.15,2013-01-27 03:43:00,
2013-01-26 21:48:00,26.3,16.1,30.15,SSE,148,10.0,16.0,65,0.00,,,0.00,Wunderground v.1.15,2013-01-27 03:48:00,
2013-01-26 21:53:00,26.1,16.3,30.15,SE,128,7.0,15.0,66,0.00,,,0.00,Wunderground v.1.15,2013-01-27 03:53:00,
2013-01-26 21:58:00,26.0,16.2,30.15,SSE,159,8.0,15.0,66,0.00,,,0.00,Wunderground v.1.15,2013-01-27 03:58:00,
2013-01-26 22:03:00,26.0,16.2,30.15,SSE,156,9.0,14.0,66,0.00,,,0.00,Wunderground v.1.15,2013-01-27 04:03:00,
2013-01-26 22:08:00,25.9,16.1,30.15,SE,144,10.0,15.0,66,0.00,,,0.00,Wunderground v.1.15,2013-01-27 04:08:00,
2013-01-26 22:13:00,25.9,16.1,30.15,South,182,8.0,18.0,66,0.00,,,0.00,Wunderground v.1.15,2013-01-27 04:13:00,
2013-01-26 22:18:00,25.8,16.0,30.14,ESE,119,7.0,18.0,66,0.00,,,0.00,Wunderground v.1.15,2013-01-27 04:18:00,
2013-01-26 22:23:00,25.8,16.0,30.14,SSE,165,13.0,16.0,66,0.00,,,0.00,Wunderground v.1.15,2013-01-27 04:23:00,
2013-01-26 22:28:00,25.7,15.9,30.14,SSE,164,9.0,16.0,66,0.00,,,0.00,Wunderground v.1.15,2013-01-27 04:28:00,
2013-01-26 22:33:00,25.6,15.8,30.14,SE,138,8.0,17.0,66,0.00,,,0.00,Wunderground v.1.15,2013-01-27 04:33:00,
2013-01-26 22:38:00,25.6,15.8,30.14,South,178,11.0,17.0,66,0.00,,,0.00,Wunderground v.1.15,2013-01-27 04:38:00,
2013-01-26 22:43:00,25.6,15.8,30.14,SSE,147,11.0,17.0,66,0.00,,,0.00,Wunderground v.1.15,2013-01-27 04:43:00,
2013-01-26 22:49:00,25.6,15.8,30.13,SE,142,10.0,17.0,66,0.00,,,0.00,Wunderground v.1.15,2013-01-27 04:49:00,
2013-01-26 22:54:00,25.6,15.8,30.13,SSE,155,13.0,19.0,66,0.00,,,0.00,Wunderground v.1.15,2013-01-27 04:54:00,
2013-01-26 22:59:00,25.7,15.9,30.13,SSE,165,13.0,19.0,66,0.00,,,0.00,Wunderground v.1.15,2013-01-27 04:59:00,
2013-01-26 23:00:00,25.7,15.9,30.14,SSE,153,11.0,19.0,66,0.00,,,0.00,Wunderground v.1.15,2013-01-27 05:00:00,
2013-01-26 23:03:00,25.7,15.9,30.13,SSE,162,14.0,18.0,66,0.00,,,0.00,Wunderground v.1.15,2013-01-27 05:03:00,
2013-01-26 23:08:00,25.6,16.2,30.14,South,180,9.0,18.0,67,0.00,,,0.00,Wunderground v.1.15,2013-01-27 05:08:00,
2013-01-26 23:13:00,25.6,16.2,30.14,SE,139,8.0,17.0,67,0.00,,,0.00,Wunderground v.1.15,2013-01-27 05:13:00,
2013-01-26 23:18:00,25.6,16.2,30.14,SSE,150,8.0,18.0,67,0.00,,,0.00,Wunderground v.1.15,2013-01-27 05:18:00,
2013-01-26 23:23:00,25.5,16.1,30.14,SSE,148,12.0,15.0,67,0.00,,,0.00,Wunderground v.1.15,2013-01-27 05:23:00,
2013-01-26 23:28:00,25.4,16.3,30.14,SSE,147,12.0,15.0,68,0.00,,,0.00,Wunderground v.1.15,2013-01-27 05:28:00,
2013-01-26 23:33:00,25.3,16.2,30.14,SE,142,11.0,14.0,68,0.00,,,0.00,Wunderground v.1.15,2013-01-27 05:33:00,
2013-01-26 23:38:00,25.1,16.4,30.14,SE,145,9.0,14.0,69,0.00,,,0.00,Wunderground v.1.15,2013-01-27 05:38:00,
2013-01-26 23:43:00,25.0,16.3,30.13,SE,145,11.0,16.0,69,0.00,,,0.00,Wunderground v.1.15,2013-01-27 05:43:00,
2013-01-26 23:48:00,24.9,16.2,30.13,SE,128,9.0,16.0,69,0.00,,,0.00,Wunderground v.1.15,2013-01-27 05:48:00,
2013-01-26 23:53:00,24.8,16.1,30.13,SE,139,8.0,13.0,69,0.00,,,0.00,Wunderground v.1.15,2013-01-27 05:53:00,
2013-01-26 23:58:00,24.7,16.3,30.14,SSE,160,9.0,13.0,70,0.00,,,0.00,Wunderground v.1.15,2013-01-27 05:58:00,